Location: Chequamegon National Forest
(46.1070°N, 90.8420°W)
Time: 16:20:15
(UTC-05:00)

Amateur Radio Satellites - All Passes

Search period start: 24 October 2014 15:50
Search period end: 25 October 2014 15:50
Location: Chequamegon National Forest, 46.1070°N, 90.8420°W

Satellite Date Start Highest point End Downlink Frequencies (MHz)
Time Altitude Azimuth
Saudisat 1A 24 Oct 16:03:44 16:08:04 50° 48° (NE) 16:12:21 436.775 MHz
UOSAT-12 24 Oct 16:14:01 16:18:31 46° 313° (NW) 16:23:06 437.025 FM, 437.400 FM
Uosat F 24 Oct 16:14:03 16:18:59 60° 71° (ENE) 16:23:58 435.120 FM
AO-7 24 Oct 16:19:15 16:27:33 87° 251° (WSW) 16:35:54 29.400 - 29.500 MHz
SO-50 24 Oct 16:33:32 16:34:56 11° 340° (NNW) 16:36:20 436.795 FM
ISS 24 Oct 17:00:13 17:03:15 31° 6° (N) 17:06:17 145.800 FM
JAS-2 24 Oct 17:04:03 17:09:49 49° 66° (ENE) 17:16:22 435.800 - 435.900 CW/SSB, 435.910 FM
KITSAT 1 24 Oct 17:33:22 17:38:36 18° 2° (N) 17:43:49 435.175 FM
Hamsat 24 Oct 17:38:33 17:42:38 52° 73° (ENE) 17:46:43 145.90 MHz
Saudisat 1A 24 Oct 17:43:54 17:47:20 22° 246° (WSW) 17:50:46 436.775 MHz
OPAL 24 Oct 17:52:16 17:56:46 33° 99° (E) 18:01:13 ?
Uosat F 24 Oct 17:54:43 17:58:11 19° 269° (W) 18:01:41 435.120 FM
UOSAT-12 24 Oct 17:57:33 17:59:51 13° 336° (NNW) 18:02:09 437.025 FM, 437.400 FM
AO-7 24 Oct 18:15:51 18:21:29 20° 271° (W) 18:27:09 29.400 - 29.500 MHz
ISS 24 Oct 18:36:57 18:40:18 72° 25° (NNE) 18:43:38 145.800 FM
JAS-2 24 Oct 18:49:53 18:55:10 32° 269° (W) 19:01:06 435.800 - 435.900 CW/SSB, 435.910 FM
SO-67 24 Oct 19:03:14 19:06:36 57° 74° (ENE) 19:10:00 435.3500 MHz FM
Hamsat 24 Oct 19:16:22 19:18:54 16° 270° (W) 19:21:26 145.90 MHz
HO-68 24 Oct 19:18:41 19:23:51 22° 52° (NE) 19:29:03 435.675 MHz FM
KITSAT 1 24 Oct 19:30:15 19:37:08 29° 31° (NNE) 19:43:58 435.175 FM
OPAL 24 Oct 19:31:11 19:35:38 34° 297° (WNW) 19:40:02 ?
STRAND 1 24 Oct 19:36:00 19:40:57 45° 99° (E) 19:45:51 ?
SO-50 24 Oct 19:57:14 20:00:25 17° 30° (NNE) 20:03:37 436.795 FM
ISS 24 Oct 20:14:09 20:16:42 20° 223° (SW) 20:19:15 145.800 FM
AO-40 24 Oct 20:18:41 22:50:52 28° 203° (SSW) 03:15:06 Beacon 2401.320
RS-15 24 Oct 20:43:59 20:50:06 17° 97° (E) 20:56:10 29.354 - 29.394 USB, Beacon 29.352 USB
UKube-1 24 Oct 20:47:57 20:51:21 23° 64° (ENE) 20:54:46 145.840 MHz, 145.915 MHz
HO-68 24 Oct 21:03:30 21:10:41 90° 252° (WSW) 21:17:55 435.675 MHz FM
STRAND 1 24 Oct 21:15:37 21:19:55 27° 297° (WNW) 21:24:11 ?
UOSAT-12 24 Oct 21:22:05 21:24:32 14° 25° (NNE) 21:27:00 437.025 FM, 437.400 FM
KITSAT 1 24 Oct 21:25:36 21:33:44 84° 56° (NE) 21:41:49 435.175 FM
FUNcube-1 24 Oct 21:27:01 21:30:35 23° 65° (ENE) 21:34:07 145.950 - 145.970 MHz USB
Oscar 11 24 Oct 21:28:40 21:32:50 48° 71° (ENE) 21:37:00 145.825 FM, Beacon 2401.500 USB
SO-50 24 Oct 21:36:59 21:41:49 70° 51° (NE) 21:46:42 436.795 FM
ZACube-1 24 Oct 22:17:17 22:21:51 69° 74° (ENE) 22:26:21 437.345 MHz
UKube-1 24 Oct 22:23:12 22:27:18 40° 261° (W) 22:31:27 145.840 MHz, 145.915 MHz
RS-15 24 Oct 22:49:24 23:00:16 71° 119° (ESE) 23:11:07 29.354 - 29.394 USB, Beacon 29.352 USB
HO-68 24 Oct 22:54:40 22:59:20 18° 272° (W) 23:04:02 435.675 MHz FM
UOSAT-12 24 Oct 23:01:11 23:05:49 50° 47° (NE) 23:10:21 437.025 FM, 437.400 FM
FUNcube-1 24 Oct 23:02:21 23:06:43 43° 262° (W) 23:11:02 145.950 - 145.970 MHz USB
Oscar 11 24 Oct 23:06:19 23:09:17 18° 269° (W) 23:12:15 145.825 FM, Beacon 2401.500 USB
SO-50 24 Oct 23:18:38 23:21:54 18° 249° (WSW) 23:25:10 436.795 FM
KITSAT 1 24 Oct 23:22:09 23:28:13 24° 256° (WSW) 23:34:16 435.175 FM
MaSat-1 24 Oct 23:52:19 23:56:09 39° 113° (ESE) 23:59:39 437.345 MHz
ZACube-1 24 Oct 23:56:19 23:58:41 14° 271° (W) 00:01:04 437.345 MHz
UOSAT-12 25 Oct 00:41:52 00:45:42 25° 246° (WSW) 00:49:28 437.025 FM, 437.400 FM
JAS-1B 25 Oct 00:56:07 00:57:17 10° 86° (E) 00:58:28 435.800 - 435.900 CW/SSB
RS-15 25 Oct 01:03:03 01:13:23 45° 326° (NW) 01:23:51 29.354 - 29.394 USB, Beacon 29.352 USB
Oscar 10/S400 25 Oct 01:20:53 02:14:24 19° 240° (WSW) 04:17:18 145.825 - 145.975 CW/USB, Beacon 145.810 USB
MaSat-1 25 Oct 01:28:47 01:31:53 22° 308° (NW) 01:34:45 437.345 MHz
Oscar 19 25 Oct 01:54:40 01:59:02 28° 94° (E) 02:03:22 437.125 CW, 437.150 USB
AO-27 25 Oct 02:13:19 02:16:49 18° 90° (E) 02:20:18 436.795 MHz FM
AO-Echo 25 Oct 02:34:11 02:39:04 36° 96° (E) 02:43:56 ?
Oscar 16 25 Oct 02:40:00 02:45:08 71° 103° (ESE) 02:50:14 437.025 USB, Beacon 2401.1428
JAS-1B 25 Oct 02:42:19 02:48:51 63° 103° (ESE) 02:56:39 435.800 - 435.900 CW/SSB
Uribyol 2 25 Oct 02:59:53 03:04:56 47° 99° (E) 03:09:55 436.500 FM
ITAMSAT 1 25 Oct 03:05:56 03:11:02 50° 100° (E) 03:16:05 435.822 SSB
PCSat 25 Oct 03:07:10 03:10:38 18° 105° (ESE) 03:14:08 145.825 MHz
RS-15 25 Oct 03:20:12 03:29:21 29° 359° (N) 03:38:42 29.354 - 29.394 USB, Beacon 29.352 USB
Gurwin Techsat 1B 25 Oct 03:26:43 03:31:47 43° 98° (E) 03:36:48 435.225 FM
Oscar 19 25 Oct 03:33:43 03:38:30 41° 292° (WNW) 03:43:17 437.125 CW, 437.150 USB
OPAL 25 Oct 03:33:54 03:36:25 14° 53° (NE) 03:38:56 ?
TMSAT-1 25 Oct 03:37:52 03:42:52 40° 97° (E) 03:47:50 436.925 FM
AO-27 25 Oct 03:51:36 03:56:49 66° 288° (WNW) 04:01:59 436.795 MHz FM
AO-Echo 25 Oct 04:13:01 04:17:47 35° 294° (WNW) 04:22:33 ?
AO-7 25 Oct 04:18:37 04:25:26 27° 93° (E) 04:32:12 29.400 - 29.500 MHz
Oscar 16 25 Oct 04:20:33 04:23:56 18° 301° (WNW) 04:27:19 437.025 USB, Beacon 2401.1428
Uosat F 25 Oct 04:20:36 04:23:30 15° 89° (E) 04:26:23 435.120 FM
Sapphire 25 Oct 04:25:30 04:30:52 69° 119° (ESE) 04:36:17 437.095 MHz 1200 baud AX-25 AFSK
JAS-1B 25 Oct 04:33:51 04:39:13 28° 298° (WNW) 04:45:19 435.800 - 435.900 CW/SSB
Uribyol 2 25 Oct 04:39:52 04:44:09 26° 298° (WNW) 04:48:25 436.500 FM
ITAMSAT 1 25 Oct 04:46:01 04:50:13 25° 298° (WNW) 04:54:24 435.822 SSB
PCSat 25 Oct 04:48:00 04:53:24 77° 304° (WNW) 04:58:52 145.825 MHz
Gurwin Techsat 1B 25 Oct 05:07:02 05:11:34 29° 296° (WNW) 05:16:06 435.225 FM
OPAL 25 Oct 05:09:24 05:14:33 82° 72° (ENE) 05:19:39 ?
TMSAT-1 25 Oct 05:18:03 05:22:40 31° 296° (WNW) 05:27:15 436.925 FM
STRAND 1 25 Oct 05:18:39 05:21:06 14° 55° (NE) 05:23:33 ?
AO-27 25 Oct 05:33:52 05:35:21 11° 307° (NW) 05:36:50 436.795 MHz FM
RS-15 25 Oct 05:35:01 05:45:27 44° 33° (NNE) 05:56:12 29.354 - 29.394 USB, Beacon 29.352 USB
JAS-2 25 Oct 05:54:28 06:01:44 41° 95° (E) 06:09:00 435.800 - 435.900 CW/SSB, 435.910 FM
Uosat F 25 Oct 05:57:47 06:02:51 74° 287° (WNW) 06:07:52 435.120 FM
Sapphire 25 Oct 06:10:21 06:14:48 25° 319° (NW) 06:19:17 437.095 MHz 1200 baud AX-25 AFSK
AO-7 25 Oct 06:10:38 06:18:56 75° 293° (WNW) 06:27:14 29.400 - 29.500 MHz
PCSat 25 Oct 06:34:00 06:37:45 19° 325° (NW) 06:41:31 145.825 MHz
OPAL 25 Oct 06:51:25 06:54:02 14° 269° (W) 06:56:38 ?
STRAND 1 25 Oct 06:54:21 06:59:29 83° 74° (ENE) 07:04:40 ?
Hamsat 25 Oct 06:57:14 07:01:27 78° 102° (ESE) 07:05:39 145.90 MHz
Uosat F 25 Oct 07:38:56 07:40:45 12° 306° (NW) 07:42:34 435.120 FM
JAS-2 25 Oct 07:39:26 07:46:49 51° 293° (WNW) 07:54:18 435.800 - 435.900 CW/SSB, 435.910 FM
RS-15 25 Oct 07:47:42 07:58:48 76° 239° (WSW) 08:10:23 29.354 - 29.394 USB, Beacon 29.352 USB
Saudisat 1A 25 Oct 07:51:33 07:55:47 50° 121° (ESE) 08:00:03 436.775 MHz
SO-67 25 Oct 07:56:49 08:00:10 47° 99° (E) 08:03:30 435.3500 MHz FM
AO-7 25 Oct 08:04:44 08:10:26 21° 315° (NW) 08:16:09 29.400 - 29.500 MHz
HO-68 25 Oct 08:30:38 08:34:20 14° 86° (E) 08:38:00 435.675 MHz FM
Hamsat 25 Oct 08:35:08 08:36:49 12° 300° (WNW) 08:38:29 145.90 MHz
STRAND 1 25 Oct 08:36:47 08:39:20 14° 272° (W) 08:41:53 ?
JAS-2 25 Oct 09:26:55 09:30:11 13° 314° (NW) 09:33:31 435.800 - 435.900 CW/SSB, 435.910 FM
SO-67 25 Oct 09:31:10 09:32:46 13° 296° (WNW) 09:34:22 435.3500 MHz FM
Saudisat 1A 25 Oct 09:31:52 09:35:35 26° 320° (NW) 09:39:20 436.775 MHz
MaSat-1 25 Oct 09:35:58 09:38:32 43° 246° (WSW) 09:40:53 437.345 MHz
RS-15 25 Oct 10:02:03 10:09:18 20° 261° (W) 10:16:45 29.354 - 29.394 USB, Beacon 29.352 USB
ZACube-1 25 Oct 10:07:04 10:07:45 10° 87° (E) 10:08:26 437.345 MHz
UKube-1 25 Oct 10:08:53 10:12:38 27° 96° (E) 10:16:21 145.840 MHz, 145.915 MHz
HO-68 25 Oct 10:15:58 10:23:13 76° 105° (ESE) 10:30:24 435.675 MHz FM
FUNcube-1 25 Oct 10:49:09 10:52:54 29° 95° (E) 10:56:34 145.950 - 145.970 MHz USB
Oscar 11 25 Oct 10:49:36 10:53:55 70° 102° (ESE) 10:58:12 145.825 FM, Beacon 2401.500 USB
Sapphire 25 Oct 11:28:15 11:32:22 21° 37° (NE) 11:36:29 437.095 MHz 1200 baud AX-25 AFSK
ZACube-1 25 Oct 11:40:28 11:44:46 79° 285° (WNW) 11:48:57 437.345 MHz
UKube-1 25 Oct 11:44:56 11:48:50 32° 293° (WNW) 11:52:43 145.840 MHz, 145.915 MHz
Oscar 10/S400 25 Oct 11:46:33 11:58:09 15° 149° (SSE) 12:07:56 145.825 - 145.975 CW/USB, Beacon 145.810 USB
JAS-1B 25 Oct 11:47:10 11:48:02 10° 49° (NE) 11:48:55 435.800 - 435.900 CW/SSB
PCSat 25 Oct 11:50:30 11:55:15 30° 43° (NE) 11:59:58 145.825 MHz
KITSAT 1 25 Oct 11:56:46 12:04:09 41° 111° (ESE) 12:11:33 435.175 FM
SO-50 25 Oct 11:57:46 11:59:06 11° 107° (ESE) 12:00:26 436.795 FM
HO-68 25 Oct 12:04:34 12:10:15 26° 305° (NW) 12:15:55 435.675 MHz FM
Oscar 16 25 Oct 12:22:08 12:25:50 20° 60° (ENE) 12:29:32 437.025 USB, Beacon 2401.1428
FUNcube-1 25 Oct 12:25:35 12:29:14 28° 293° (WNW) 12:32:49 145.950 - 145.970 MHz USB
Oscar 11 25 Oct 12:27:19 12:29:33 14° 300° (WNW) 12:31:47 145.825 FM, Beacon 2401.500 USB
Uribyol 2 25 Oct 12:43:50 12:46:43 15° 56° (NE) 12:49:36 436.500 FM
ITAMSAT 1 25 Oct 12:49:48 12:52:52 16° 57° (ENE) 12:55:56 435.822 SSB
ISS 25 Oct 12:57:07 13:00:09 33° 142° (SE) 13:03:11 145.800 FM
Sapphire 25 Oct 13:11:03 13:16:32 88° 239° (WSW) 13:21:58 437.095 MHz 1200 baud AX-25 AFSK
Gurwin Techsat 1B 25 Oct 13:13:44 13:16:27 14° 55° (NE) 13:19:10 435.225 FM
Oscar 19 25 Oct 13:13:51 13:18:49 52° 70° (ENE) 13:23:49 437.125 CW, 437.150 USB
TMSAT-1 25 Oct 13:24:51 13:27:19 13° 55° (NE) 13:29:47 436.925 FM
JAS-1B 25 Oct 13:31:48 13:37:35 63° 71° (ENE) 13:43:13 435.800 - 435.900 CW/SSB
AO-7 25 Oct 13:33:31 13:37:08 14° 37° (NE) 13:40:45 29.400 - 29.500 MHz
AO-27 25 Oct 13:33:32 13:38:14 35° 66° (ENE) 13:42:58 436.795 MHz FM
PCSat 25 Oct 13:33:40 13:38:59 56° 244° (WSW) 13:44:15 145.825 MHz
SO-50 25 Oct 13:34:20 13:38:51 86° 125° (SE) 13:43:31 436.795 FM
AO-Echo 25 Oct 13:49:33 13:54:22 56° 71° (ENE) 13:59:22 ?
KITSAT 1 25 Oct 13:51:26 13:59:21 56° 312° (NW) 14:07:18 435.175 FM
Oscar 16 25 Oct 13:59:37 14:04:43 63° 258° (WSW) 14:09:51 437.025 USB, Beacon 2401.1428
Uribyol 2 25 Oct 14:20:13 14:25:27 90° 74° (ENE) 14:30:43 436.500 FM
ITAMSAT 1 25 Oct 14:26:27 14:31:40 85° 255° (WSW) 14:36:56 435.822 SSB
ISS 25 Oct 14:33:29 14:36:45 51° 340° (NNW) 14:40:02 145.800 FM
Saudisat 1A 25 Oct 14:36:59 14:40:00 18° 33° (NNE) 14:43:00 436.775 MHz
Gurwin Techsat 1B 25 Oct 14:50:18 14:55:37 84° 74° (ENE) 15:00:58 435.225 FM
UOSAT-12 25 Oct 14:54:18 14:58:49 55° 121° (ESE) 15:03:27 437.025 FM, 437.400 FM
Oscar 19 25 Oct 14:54:29 14:58:28 22° 268° (W) 15:02:27 437.125 CW, 437.150 USB
Sapphire 25 Oct 14:56:29 14:59:08 14° 257° (WSW) 15:01:46 437.095 MHz 1200 baud AX-25 AFSK
TMSAT-1 25 Oct 15:01:05 15:06:23 79° 74° (ENE) 15:11:43 436.925 FM
AO-27 25 Oct 15:13:02 15:17:44 34° 264° (W) 15:22:29 436.795 MHz FM
SO-50 25 Oct 15:16:39 15:20:02 20° 327° (NNW) 15:23:30 436.795 FM
AO-7 25 Oct 15:20:09 15:27:56 48° 60° (ENE) 15:35:44 29.400 - 29.500 MHz
JAS-1B 25 Oct 15:24:53 15:28:52 19° 269° (W) 15:32:46 435.800 - 435.900 CW/SSB
AO-Echo 25 Oct 15:30:00 15:33:32 20° 270° (W) 15:37:10 ?
Uosat F 25 Oct 15:35:49 15:40:05 29° 64° (ENE) 15:44:21 435.120 FM
